FENGYUN 1C DEB, 36691

Orbit data source: Space-Track

FENGYUN 1C DEB, 36691 is space debris in SSO originally from a launch on Mon, 10 May 1999 UTC launched from the Taiyaun Space Center, China (TSC). Fengyun 1C debris stems from the Chinese weather satellite Fengyun-1C, which was intentionally destroyed by a Chinese anti-satellite missile in 2007. This event dramatically increased the amount of space debris, with thousands of trackable fragments posing hazards to satellites and human spaceflight. The Fengyun 1C debris cloud has become a focal point in discussions about space sustainability and the need for international regulations to prevent the creation of new debris.

Loading next visibility...
Identifier
36691, 1999-025DZM
Orbit
SSO
Country
Flag of CNCN / PRC
Related business
Manufacturer
Unknown
Mission
Spacecraft
Bus & Motor
Unknown
Mass
Unknown
Launch date (UTC)
1999-05-10 (27 years ago)
Launch vehicle
Unknown
Launch site
Taiyaun Space Center, China (TSC)
Object type
Payload
Rocket body
Debris
Shape & HBR
Unknown shape, 0.1 m
Radar Cross Section
Small (<0.1 m²)

Expand to show TLE details & history
Last TLE update: 5 months ago

TLE from 5 months ago
0 FENGYUN 1C DEB
1 36691U 99025DZM 26002.62869803  .00006879  00000-0  38245-2 0  9996
2 36691  98.6510   6.8744 0126439 176.6472 183.5574 14.07373728599034
Epoch: 2026-01-02T15:05Z
TLE epoch observation values (Epoch: 2026-01-02T15:05:19.509Z)
Latitude
-0.00006°
Longitude
38.27694°
Altitude
962.742 km
Speed
7.324 km/s
True Right ascension
00h 27m 29s
True Declination
0° 00' 00"
Sunlit
Object was in daylight at epoch
Visualization orbit readout
Latitude
Unknown
Longitude
Unknown
Altitude
Unknown
Speed
Unknown
Apparent Right ascension
Unknown
Apparent Declination
Unknown
Sunlit
N/A
Visualization observer readout
Local Sidereal Time
05:33:50
Azimuth
Unknown
Elevation
Unknown
Doppler factor
Unknown
Orbital elements
Apogee altitude
957.133 km
Perigee altitude
773.956 km
Semi-major axis
7,243.682 km
Eccentricity
0.01264
Inclination
98.651°
RAAN
6.8744°
Arg. of periapsis
176.6472°
True anomaly
183.4689°
Mean anomaly
183.5574°
Eccentric anomaly
183.51301°
Mean motion
3.5205 °/min
Orbital period
102.26 mins
BSTAR
0.0038245
Loading maneuver chart data...
Computing Atmospheric mass density...
Loading historical data...
Loading historical data...
Loading historical data...
Loading historical data...
Loading historical data...
Loading historical data...
Loading historical data...

Documentation

Showing up to 5 results
|